#timestamp,LO_Frequency,Hit,StdDev 
1684846815.6,286047005.9,P
1684846835.5,286047004.0,N
1684846855.3,286047003.2,N
1684846875.1,286047000.1,N
1684846895.9,286047000.7,N
1684846915.7,286047000.1,N
1684846935.5,286047000.3,N
1684846955.4,286047000.6,N
1684846975.2,286047000.5,N
1684846995.0,286047000.9,N
1684846996.0,286047000.9,N
1684847015.8,286047000.6,N
1684847035.6,286046998.1,N
1684847055.5,286047000.8,N
1684847075.3,286047000.8,N
1684847095.1,286047000.4,N
1684847115.9,286047002.3,N
1684847135.7,286047000.9,N
1684847155.6,286047000.3,N
1684847175.4,286047000.6,N
1684847195.2,286047002.5,N
1684847215.1,286047001.9,N
1684847216.0,286047001.9,N
1684847235.8,286047001.8,N
1684847255.6,286047000.0,N
1684847305.5,286047000.3,E
1684847315.4,286046998.2,N
1684847335.2,286047000.8,P
1684847355.1,286046998.3,N
1684847356.0,286046998.3,N
1684847375.8,286046996.6,Y
1684847395.7,286047001.1,P
1684847415.5,286047001.2,N
1684847435.3,286046999.4,N
1684847455.2,286047000.1,N
1684847475.0,286047000.4,N
1684847475.9,286047000.4,N
1684847495.8,286047002.4,Y
1684847515.6,286047000.5,P
1684847535.4,286047000.8,P
1684847555.3,286047000.2,N
1684847575.1,286046998.6,Y
1684847595.8,286046998.5,P
1684847615.7,286047001.1,N
1684847635.5,286046999.6,N
1684847655.4,286046997.0,Y
1684847675.2,286046997.4,P
1684847695.0,286046994.9,P
1684847695.9,286046994.9,N
1684847715.8,286046998.8,N
1684847735.6,286046999.0,N
1684847755.4,286046997.1,N
1684847775.3,286046996.8,N
1684847795.1,286046999.3,N
1684847815.9,286046999.3,N
1684847835.7,286046998.9,N
1684847855.5,286046999.0,N
1684847875.4,286046997.7,N
1684847895.2,286046997.4,N
1684847915.0,286046996.9,N
1684847915.9,286046996.9,N
1684847935.8,286046998.0,N
1684847955.6,286046997.5,N
1684847975.5,286046994.9,Y
1684847995.3,286046998.5,P
1684848015.1,286046999.2,N
1684848035.9,286046997.0,P
1684848055.7,286046997.4,Y
1684848075.5,286046999.2,P
1684848095.4,286046997.2,P
1684848115.2,286046996.8,P
1684848135.1,286046997.6,N
1684848136.0,286046997.6,N
1684848155.8,286046997.6,Y
1684848175.6,286046999.6,P
1684848195.5,286046998.7,N
1684848215.3,286046999.1,N
1684848235.2,286046998.3,N
1684848255.9,286046998.6,N
1684848275.7,286047001.0,N
1684848295.6,286046998.2,N
1684848315.4,286046998.5,N
1684848335.2,286046999.3,N
1684848355.1,286046999.6,N
1684848356.0,286046999.6,N
1684848375.8,286046999.3,N
1684848395.7,286046999.2,N
1684848415.5,286046999.1,N
1684848435.3,286046997.7,Y
1684848455.2,286046996.7,P
1684848475.0,286046996.5,N
1684848475.9,286046996.5,P
1684848495.7,286046999.1,N
1684848515.6,286046999.5,N
1684848535.4,286046997.1,N
1684848555.3,286046993.7,Y
1684848575.1,286046997.0,P
1684848595.8,286047000.8,N
1684848615.7,286047001.8,N
1684848635.5,286047004.0,N
1684848655.3,286047003.8,N
1684848675.2,286047003.4,N
1684848695.0,286047005.9,N
1684848695.9,286047005.9,N
1684848715.8,286047002.9,N
1684848735.6,286047005.7,N
1684848755.4,286047003.0,N
1684848775.3,286047003.6,N
1684848795.1,286047003.5,N
1684848815.8,286047003.7,N
1684848835.7,286047004.4,N
1684848855.5,286047004.0,N
1684848875.4,286047003.6,N
1684848895.2,286047002.9,N
1684848915.0,286047004.3,N
1684848915.9,286047004.3,N
1684848935.8,286047001.6,N
1684848955.6,286047004.0,N
1684848975.4,286047003.0,N
1684848995.3,286047003.8,N
1684849015.1,286047001.9,N
1684849035.9,286047002.3,N
1684849055.7,286047001.4,N
1684849075.5,286047001.7,N
1684849095.4,286047003.9,N
1684849115.2,286047001.4,N
1684849135.0,286047003.3,N
1684849135.9,286047003.3,N
1684849155.8,286047005.5,Y
1684849175.6,286047002.4,P
1684849195.5,286047002.8,P
1684849215.3,286047000.8,N
1684849235.1,286046998.4,N
1684849255.9,286047001.1,N
1684849275.7,286046999.0,N
1684849295.5,286047001.2,N
1684849315.4,286046999.4,N
1684849335.2,286046999.3,N
1684849355.1,286046998.7,N
1684849356.0,286046998.7,N
1684849375.8,286047000.8,N
1684849395.6,286046998.2,N
1684849415.5,286047000.3,N
1684849435.3,286046998.5,N
1684849455.1,286047001.2,N
1684849475.9,286047000.7,N
1684849495.7,286046999.9,N
1684849515.6,286047002.8,N
1684849535.4,286047000.4,N
1684849555.2,286047000.8,N
1684849575.1,286047000.8,N
1684849576.0,286047000.8,N
1684849595.8,286047001.1,N
1684849615.6,286046997.7,N
1684849635.5,286046995.9,N
1684849655.3,286046993.9,Y
1684849675.2,286046993.8,P
1684849695.9,286046995.9,N
1684849715.7,286046994.1,N
1684849735.6,286046995.9,N
1684849755.4,286046996.1,N
1684849775.2,286046995.0,N
1684849795.1,286046999.0,N
1684849796.0,286046999.0,N
1684849815.8,286046999.4,N
1684849835.7,286046999.4,N
1684849855.5,286046996.6,N
1684849875.3,286046996.6,N
1684849895.2,286046996.9,N
1684849915.9,286046996.0,N
1684849935.7,286046993.4,Y
1684849955.6,286046998.3,P
1684849975.4,286046999.8,N
1684849995.3,286047002.8,N
1684850015.1,286047001.6,N
1684850016.0,286047001.6,N
1684850035.8,286047002.2,N
1684850055.7,286047002.8,N
1684850075.5,286047001.9,N
1684850095.3,286047004.4,N
1684850115.2,286047004.0,N
1684850135.0,286047003.2,N
1684850135.9,286047003.2,N
1684850155.8,286047005.6,N
1684850175.6,286047005.5,N
1684850195.4,286047005.2,N
1684850215.3,286047005.5,N
1684850235.1,286047003.4,N
1684850236.0,286047003.4,N
1684850255.8,286047003.4,N
1684850275.7,286047003.5,N
1684850295.5,286047002.2,N
1684850315.3,286047002.1,N
1684850335.2,286047004.3,N
1684850355.0,286047001.3,N
1684850355.9,286047001.3,N
1684850375.8,286047004.1,N
1684850395.6,286047004.3,N
